Paso Robles, CA

2:28 AM PST on November 21, 2017 (GMT -0800)
Paso Robles Municipal

Weather History for KPRB - September, 2011

Change the Weather History Date:

Tuesday, September 27, 2011

  Actual Average Record
Temperature  
Mean Temperature 74 °F 67 °F  
Max Temperature 97 °F 85 °F 108 °F (2010)
Min Temperature 50 °F 49 °F 38 °F (2013)
Degree Days  
Heating Degree Days 0 2  
Month to date heating degree days 3 17  
Since 1 July heating degree days 8 25  
Cooling Degree Days 9 4  
Month to date cooling degree days 214 149  
Year to date cooling degree days 866 882  
Growing Degree Days 24 (Base 50)    
Moisture  
Dew Point 50 °F    
Average Humidity 52    
Maximum Humidity 83    
Minimum Humidity 20    
Precipitation  
Precipitation 0.00 in 0.01 in 0.54 in (1986)
Month to date precipitation 0.01 0.18  
Year to date precipitation 9.83 9.08  
Since 1 July precipitation 0.01  
Sea Level Pressure  
Sea Level Pressure 29.96 in    
Wind  
Wind Speed 5 mph (East)    
Max Wind Speed 15 mph    
Max Gust Speed 21 mph    
Visibility 10 miles    
Events      
T = Trace of Precipitation, MM = Missing Value Source: NWS Daily Summary

Daily Weather History Graph

Daily Weather History Graph

Search for Another Location

Airport or City:

Trip Planner

Search our weather history database for the weather conditions in past years. The results will help you decide how hot, cold, wet, or windy it might be!

Date:

Astronomy

Sep. 27, 2011 Rise Set
Actual Time 6:54 AM PDT 6:52 PM PDT
Civil Twilight 6:28 AM PDT 7:17 PM PDT
Nautical Twilight 5:59 AM PDT 7:47 PM PDT
Astronomical Twilight 5:29 AM PDT 8:17 PM PDT
Moon 7:11 AM PDT (9/27) 6:50 PM PDT (9/27)
Length of Visible Light 12h 48m
Length of Day
11h 58m
New Moon, 0% of the Moon is Illuminated
Sep 27
New Moon
Oct 3
First Quarter
Oct 11
Full
Oct 19
Last Quarter
Oct 26
New

Hourly Weather History & Observations

Time (PDT) Temp. Heat Index Dew Point Humidity Pressure Visibility Wind Dir Wind Speed Gust Speed Precip Events Conditions
12:53 AM 60.1 °F - 48.0 °F 64% 29.99 in 10.0 mi Calm Calm - N/A   Clear
1:53 AM 59.0 °F - 48.2 °F 67% 30.01 in 10.0 mi Calm Calm - N/A   Clear
2:53 AM 57.0 °F - 48.0 °F 72% 29.99 in 10.0 mi Calm Calm - N/A   Clear
3:53 AM 55.0 °F - 46.9 °F 74% 30.00 in 10.0 mi Calm Calm - N/A   Clear
4:53 AM 53.1 °F - 45.0 °F 74% 30.00 in 10.0 mi Calm Calm - N/A   Clear
5:53 AM 53.1 °F - 46.0 °F 77% 30.01 in 10.0 mi Calm Calm - N/A   Clear
6:53 AM 51.1 °F - 46.0 °F 83% 30.02 in 10.0 mi Calm Calm - N/A   Clear
7:53 AM 55.0 °F - 46.0 °F 72% 30.03 in 10.0 mi NE 3.5 mph - N/A   Clear
8:53 AM 62.1 °F - 48.0 °F 60% 30.02 in 10.0 mi Variable 4.6 mph - N/A   Clear
9:53 AM 69.1 °F - 48.9 °F 49% 30.02 in 10.0 mi NW 4.6 mph - N/A   Clear
10:53 AM 75.9 °F - 51.1 °F 42% 29.99 in 10.0 mi NNE 4.6 mph - N/A   Clear
11:53 AM 84.9 °F 83.2 °F 53.1 °F 33% 29.97 in 10.0 mi East 11.5 mph - N/A   Clear
12:53 PM 88.0 °F - 52.0 °F 29% 29.94 in 10.0 mi East 11.5 mph 18.4 mph N/A   Clear
1:53 PM 91.9 °F - 51.1 °F 25% 29.91 in 10.0 mi ENE 9.2 mph - N/A   Clear
2:53 PM 93.9 °F - 48.9 °F 21% 29.89 in 10.0 mi ENE 8.1 mph - N/A   Clear
3:53 PM 96.1 °F - 48.0 °F 19% 29.88 in 10.0 mi East 9.2 mph 20.7 mph N/A   Clear
4:53 PM 95.0 °F - 48.9 °F 21% 29.86 in 10.0 mi East 11.5 mph - N/A   Clear
5:53 PM 93.0 °F - 50.0 °F 23% 29.87 in 10.0 mi ESE 11.5 mph - N/A   Clear
6:53 PM 86.0 °F 84.0 °F 53.1 °F 32% 29.89 in 10.0 mi ESE 9.2 mph - N/A   Clear
7:53 PM 82.0 °F 81.3 °F 54.0 °F 38% 29.92 in 10.0 mi ESE 8.1 mph - N/A   Clear
8:53 PM 78.1 °F - 54.0 °F 43% 29.96 in 10.0 mi East 4.6 mph - N/A   Clear
9:53 PM 75.9 °F - 55.0 °F 48% 29.96 in 10.0 mi Calm Calm - N/A   Clear
10:53 PM 73.0 °F - 55.0 °F 53% 29.97 in 10.0 mi ENE 3.5 mph - N/A   Clear
11:53 PM 68.0 °F - 53.1 °F 59% 29.97 in 10.0 mi South 3.5 mph - N/A   Clear